TimeCDT,TemperatureF,Dew PointF,Humidity,Sea Level PressureIn,VisibilityMPH,Wind Direction,Wind SpeedMPH,Gust SpeedMPH,PrecipitationIn,Events,Conditions,WindDirDegrees,DateUTC
12:53 AM,73.9,59.0,59,29.86,10.0,Calm,Calm,-,N/A,,Clear,0,2013-06-29 05:53:00
1:53 AM,73.0,60.1,64,29.86,10.0,Calm,Calm,-,N/A,,Clear,0,2013-06-29 06:53:00
2:53 AM,73.0,61.0,66,29.87,10.0,Calm,Calm,-,N/A,,Clear,0,2013-06-29 07:53:00
3:53 AM,72.0,61.0,68,29.88,10.0,Calm,Calm,-,N/A,,Clear,0,2013-06-29 08:53:00
4:53 AM,78.1,61.0,56,29.90,10.0,NNE,10.4,-,N/A,,Clear,20,2013-06-29 09:53:00
5:53 AM,73.9,62.1,66,29.91,10.0,NNE,5.8,-,N/A,,Clear,20,2013-06-29 10:53:00
6:53 AM,73.0,63.0,71,29.93,10.0,North,6.9,-,N/A,,Clear,360,2013-06-29 11:53:00
7:53 AM,79.0,62.1,56,29.94,10.0,NNE,6.9,-,N/A,,Clear,30,2013-06-29 12:53:00
8:53 AM,84.0,60.1,44,29.95,10.0,NE,9.2,-,N/A,,Clear,40,2013-06-29 13:53:00
9:53 AM,84.0,57.9,41,29.96,10.0,NE,9.2,-,N/A,,Mostly Cloudy,40,2013-06-29 14:53:00
10:53 AM,88.0,55.0,32,29.95,10.0,ENE,6.9,-,N/A,,Clear,60,2013-06-29 15:53:00
11:53 AM,91.0,55.9,30,29.94,10.0,NNE,10.4,-,N/A,,Clear,30,2013-06-29 16:53:00
12:53 PM,93.0,54.0,27,29.93,10.0,NNE,12.7,16.1,N/A,,Clear,20,2013-06-29 17:53:00
1:53 PM,93.0,53.1,26,29.92,10.0,NNW,10.4,17.3,N/A,,Clear,340,2013-06-29 18:53:00
2:53 PM,95.0,54.0,25,29.89,10.0,North,12.7,21.9,N/A,,Clear,350,2013-06-29 19:53:00
3:53 PM,95.0,57.0,28,29.87,10.0,North,12.7,18.4,N/A,,Clear,10,2013-06-29 20:53:00
4:53 PM,96.1,57.9,28,29.85,10.0,North,10.4,-,N/A,,Clear,10,2013-06-29 21:53:00
5:53 PM,95.0,55.9,27,29.83,10.0,Variable,5.8,-,N/A,,Clear,0,2013-06-29 22:53:00
6:53 PM,95.0,55.9,27,29.82,10.0,NE,8.1,-,N/A,,Clear,40,2013-06-29 23:53:00
7:53 PM,93.0,55.9,29,29.82,10.0,ENE,12.7,-,N/A,,Clear,60,2013-06-30 00:53:00
8:53 PM,87.1,55.9,35,29.82,10.0,ENE,5.8,-,N/A,,Clear,60,2013-06-30 01:53:00
9:53 PM,81.0,57.0,44,29.83,10.0,Calm,Calm,-,N/A,,Clear,0,2013-06-30 02:53:00
10:53 PM,78.1,57.9,50,29.85,10.0,Calm,Calm,-,N/A,,Clear,0,2013-06-30 03:53:00
11:53 PM,73.0,59.0,61,29.86,10.0,Calm,Calm,-,N/A,,Clear,0,2013-06-30 04:53:00